CW2613 Palm City FL US current weather conditions

sailwx.info

Wind from 152

Air temperature 31.1° C
Dewpoint 26.4° C

Last reported at 2020-Sep-28 15:01 UTC.
Time now 2020-Sep-28 15:41 UTC

Location: N 27°08' W 080°20'.
View on Google Maps.

See reports from other nearby stations

  
Tides and Currents Weather Stations Pressure Air Temp Water Temp Dewpoint Dewpoint Depression Visibility Wind Speed Wind Dir Waves Ship Positions
date/time (UTC)wind fromknots sea level pressurealtimeterstation pressurevisibilityair tempwater tempwave heightnotes
2020-Sep-28 15:01 152 31.1
2020-Sep-28 14:47 157 31.1
2020-Sep-28 14:31 203 1 gusting 5 31.1
2020-Sep-28 14:17 176 30.6
2020-Sep-28 14:01 205 29.4
2020-Sep-28 13:46 172 29.4
2020-Sep-28 13:31 192 29.4
2020-Sep-28 13:16 169 29.4
2020-Sep-28 13:00 181 28.9
2020-Sep-28 12:45 170 27.8
2020-Sep-28 12:30 170 26.7
2020-Sep-28 12:15 171 26.1
2020-Sep-28 12:00 170 25.0
2020-Sep-28 11:45 170 24.4
2020-Sep-28 11:30 171 24.4
2020-Sep-28 11:15 171 24.4
2020-Sep-28 11:00 171 24.4
2020-Sep-28 10:45 171 24.4
2020-Sep-28 10:30 171 24.4
2020-Sep-28 10:15 171 24.4
2020-Sep-28 10:00 171 24.4
2020-Sep-28 09:46 172 24.4
2020-Sep-28 09:31 172 24.4
2020-Sep-28 09:15 172 24.4
2020-Sep-28 09:00 172 24.4
2020-Sep-28 08:45 172 25.0
2020-Sep-28 08:30 174 25.0
2020-Sep-28 08:15 164 24.4
2020-Sep-28 08:00 164 24.4
2020-Sep-28 07:45 164 24.4
2020-Sep-28 07:30 164 24.4
2020-Sep-28 07:15 164 24.4
2020-Sep-28 06:47 164 24.4
2020-Sep-28 06:32 164 24.4
2020-Sep-28 06:16 164 25.0
2020-Sep-28 06:01 164 25.0
2020-Sep-28 05:47 164 25.0
2020-Sep-28 05:32 164 25.0
2020-Sep-28 05:17 164 25.0
2020-Sep-28 05:01 164 25.6
2020-Sep-28 04:46 165 25.6
2020-Sep-28 04:31 164 25.6
2020-Sep-28 04:16 164 25.6
2020-Sep-28 04:00 168 25.0
2020-Sep-28 03:46 168 25.0
2020-Sep-28 03:33 168 25.0
2020-Sep-28 03:16 168 25.0
2020-Sep-28 03:00 168 25.0
2020-Sep-28 02:46 168 25.0
2020-Sep-28 02:31 168 25.0
2020-Sep-28 02:15 169 25.0
2020-Sep-28 02:01 169 25.0
2020-Sep-28 01:46 169 25.0
2020-Sep-28 01:31 169 25.0
2020-Sep-28 01:17 169 25.6
2020-Sep-28 01:01 169 25.6
2020-Sep-28 00:45 169 25.6
2020-Sep-28 00:31 169 25.6
2020-Sep-28 00:15 169 26.1
2020-Sep-28 00:00 169 26.1
2020-Sep-27 23:45 171 26.7
2020-Sep-27 23:30 172 26.7
2020-Sep-27 23:15 174 27.2
2020-Sep-27 23:01 173 27.8
2020-Sep-27 22:45 176 27.8
2020-Sep-27 22:30 191 28.3
2020-Sep-27 22:15 180 28.3
2020-Sep-27 22:01 174 28.3
2020-Sep-27 21:45 181 28.9
2020-Sep-27 21:30 184 29.4
2020-Sep-27 21:15 243 30.0
2020-Sep-27 21:01 176 30.6
2020-Sep-27 20:45 238 0 gusting 4 31.1
2020-Sep-27 20:31 216 0 gusting 5 31.1
2020-Sep-27 20:15 184 31.1
2020-Sep-27 20:00 223 1 gusting 6 31.1
2020-Sep-27 19:45 193 1 gusting 6 31.1
2020-Sep-27 19:30 179 0 gusting 6 31.1
2020-Sep-27 19:15 187 0 gusting 4 31.1
2020-Sep-27 19:00 171 31.7
2020-Sep-27 18:45 173 31.7
2020-Sep-27 18:30 177 31.1
2020-Sep-27 18:17 164 31.1
2020-Sep-27 18:02 173 0 gusting 5 31.7
2020-Sep-27 17:46 195 31.7
2020-Sep-27 17:32 209 0 gusting 5 31.1
2020-Sep-27 17:16 209 31.1
2020-Sep-27 17:01 158 0 gusting 5 31.1
2020-Sep-27 16:47 174 0 gusting 5 30.6
2020-Sep-27 16:31 179 0 gusting 3 30.6
2020-Sep-27 16:16 184 30.0
2020-Sep-27 16:01 177 30.6
2020-Sep-27 15:46 189 0 gusting 5 31.1
2020-Sep-27 15:31 167 0 gusting 5 31.1
2020-Sep-27 15:16 182 30.0
2020-Sep-27 15:01 184 30.0
2020-Sep-27 14:46 188 30.0
2020-Sep-27 14:31 179 30.0
2020-Sep-27 14:16 200 0 gusting 3 30.6
2020-Sep-27 14:01 164 30.0
2020-Sep-27 13:45 177 28.9
2020-Sep-27 13:30 185 28.3
2020-Sep-27 13:16 178 27.2
2020-Sep-27 13:01 168 26.7
2020-Sep-27 12:46 166 26.1
2020-Sep-27 12:31 165 26.1
2020-Sep-27 12:15 165 25.0
2020-Sep-27 12:00 165 23.9
2020-Sep-27 11:45 165 23.9
2020-Sep-27 11:30 167 23.3
2020-Sep-27 11:15 167 23.3
2020-Sep-27 11:00 167 23.3
2020-Sep-27 10:45 167 23.3
2020-Sep-27 10:30 167 23.9
2020-Sep-27 10:15 167 23.9
2020-Sep-27 10:01 167 23.9
2020-Sep-27 09:45 167 23.9
2020-Sep-27 09:30 167 23.9
2020-Sep-27 09:15 167 23.9
2020-Sep-27 09:00 167 23.9
2020-Sep-27 08:45 167 23.9
2020-Sep-27 08:30 167 23.9
2020-Sep-27 08:15 167 23.9
2020-Sep-27 08:00 167 23.9
2020-Sep-27 07:45 167 23.9
2020-Sep-27 07:30 167 23.9
2020-Sep-27 07:16 167 23.9
2020-Sep-27 07:02 167 23.9
2020-Sep-27 06:32 167 23.9
2020-Sep-27 06:16 167 24.4
2020-Sep-27 06:01 167 24.4
2020-Sep-27 05:46 167 24.4
2020-Sep-27 05:32 167 24.4
2020-Sep-27 05:17 167 24.4
2020-Sep-27 05:01 167 24.4
2020-Sep-27 04:46 167 25.0
2020-Sep-27 04:31 167 25.0
2020-Sep-27 04:15 167 25.0
2020-Sep-27 04:00 167 25.0
2020-Sep-27 03:46 167 25.0
2020-Sep-27 03:31 167 25.0
2020-Sep-27 03:16 167 25.0
2020-Sep-27 03:01 168 25.0
2020-Sep-27 02:46 168 25.0
2020-Sep-27 02:31 168 25.6
2020-Sep-27 02:15 168 25.6
2020-Sep-27 02:00 168 25.6
2020-Sep-27 01:45 168 25.6
2020-Sep-27 01:30 168 26.1
2020-Sep-27 01:15 168 26.1
2020-Sep-27 01:00 169 26.1
2020-Sep-27 00:45 169 26.7
2020-Sep-27 00:30 170 26.7
2020-Sep-27 00:15 173 27.2
2020-Sep-27 00:00 174 27.2
2020-Sep-26 23:45 172 27.2
2020-Sep-26 23:30 179 27.8
2020-Sep-26 23:16 176 27.8
2020-Sep-26 23:01 176 28.3
2020-Sep-26 22:45 176 28.9
2020-Sep-26 22:30 158 29.4
2020-Sep-26 22:15 173 30.0
2020-Sep-26 22:01 195 30.6
2020-Sep-26 21:45 175 30.6
2020-Sep-26 21:30 158 30.6
2020-Sep-26 21:16 179 31.1
2020-Sep-26 21:01 193 31.1
2020-Sep-26 20:45 175 0 gusting 5 32.2
2020-Sep-26 20:30 158 32.2
2020-Sep-26 20:15 155 32.2
2020-Sep-26 20:00 151 1 gusting 6 32.2
2020-Sep-26 19:45 118 0 gusting 5 31.7
2020-Sep-26 19:30 162 1 gusting 6 31.7
2020-Sep-26 19:15 165 0 gusting 6 31.7
2020-Sep-26 19:00 161 0 gusting 6 31.1
2020-Sep-26 18:45 151 0 gusting 6 31.1
2020-Sep-26 18:32 164 1 gusting 6 31.1
2020-Sep-26 18:01 127 2 gusting 6 31.7
2020-Sep-26 17:46 089 31.7
2020-Sep-26 17:32 135 30.6
2020-Sep-26 17:16 147 30.0
2020-Sep-26 17:02 151 0 gusting 6 30.0
2020-Sep-26 16:47 070 0 gusting 3 31.1
2020-Sep-26 16:31 158 30.6
2020-Sep-26 16:16 130 0 gusting 5 31.1
2020-Sep-26 16:01 182 0 gusting 5 31.1
2020-Sep-26 15:31 224 0 gusting 5 30.0
2020-Sep-26 15:17 057 1 gusting 6 30.0
2020-Sep-26 15:01 104 0 gusting 4 30.6